Regional Weather Roundup
Issued by NWS State College, PA

Home | Current Version | Previous Version | Graphics & Text | Print | Product List | Glossary Off
Versions: 1 2 3 4 5 6 7 8 9 10 11 12 13 14 15 16 17 18 19 20 21 22 23 24 25 26 27 28 29 30 31 32 33 34 35 36 37 38 39 40 41 42 43 44 45 46 47 48 49 50

000
ASUS41 KCTP 270810
RWRCTP

REGIONAL WEATHER ROUNDUP
NATIONAL WEATHER SERVICE STATE COLLEGE PA
300 AM EST TUE JAN 27 2015

Note: "fair" indicates few or no clouds below 12,000 feet with no
significant weather and/or obstructions to visibility.

* = STATION THAT DOES NOT REPORT PRECIPITATION /E.G. RAIN...SNOW...ETC/
    THUNDER OR FOG.

PAZ002>004-007>009-013>016-020>023-029>032-270900-
WESTERN PENNSYLVANIA

CITY           SKY/WX    TMP DP  RH WIND       PRES   REMARKS
ERIE           CLOUDY    19  14  81 NE8       29.90R WCI   9
MEADVILLE      CLOUDY    17  13  84 NW7       29.82R WCI   8
FRANKLIN*      CLOUDY    18  12  79 NW5       29.82R WCI  11
NEW CASTLE     FLURRIES  18  14  84 NW6       29.87R WCI  10
BEAVER COUNTY  NOT AVBL
BUTLER*        CLOUDY    19  16  86 CALM      29.84S
PITTSBURGH INT FLURRIES  19  16  88 W8        29.84R WCI   9
PITTSBURGH     CLOUDY    19  15  84 NW8       29.82S FOG     WCI   9
INDIANA*       CLOUDY    19  18  93 NW5       29.83R FOG     WCI  13
LATROBE        CLOUDY    19  19 100 W6        29.84S WCI  11
WASHINGTON CO* CLOUDY    19  16  86 CALM      29.86S
$$

PAZ004>006-010>012-017>019-024>028-033>037-041-042-045-046-049>053-270900-
CENTRAL PENNSYLVANIA

CITY           SKY/WX    TMP DP  RH WIND       PRES   REMARKS
BRADFORD       CLOUDY    10   6  84 N3        29.74R
DUBOIS         PTCLDY    14  11  87 NW5       29.75R WCI   6
CLEARFIELD     FLURRIES  17  14  88 NW5       29.76S WCI  10
JOHNSTOWN      LGT SNOW  17  15  92 W10       29.71R FOG     WCI   5
ALTOONA        CLOUDY    19  17  92 CALM      29.75R
STATE COLLEGE  FLURRIES  21  18  91 N5        29.76S WCI  14
WILLIAMSPORT   FLURRIES  22  15  75 NW6       29.82R WCI  14
SELINSGROVE    FLURRIES  25  21  85 NW6       29.80R
FT INDIANTOWN  MIX PCPN  27  18  69 N14G22    29.74F
CAPITAL CITY   CLOUDY    27  21  78 NW8       29.77R
HARRISBURG     FLURRIES  26  21  81 NW9       29.76R
YORK           FLURRIES  25  21  85 NW7       29.75S
$$

PAZ038>040-043-044-047-048-054-055-060>062-067>071-270900-
EASTERN PENNSYLVANIA

CITY           SKY/WX    TMP DP  RH WIND       PRES   REMARKS
SCRANTON       CLOUDY    22  14  71 N3        29.74S
MOUNT POCONO   CLOUDY    19  13  77 NW13G18   29.62F WCI   6
ALLENTOWN      CLOUDY    26  15  63 N9        29.72F
QUAKERTOWN*    NOT AVBL
READING        CLOUDY    27  18  69 N8        29.72F
LANCASTER      CLOUDY    26  19  74 NW10      29.73S
COATESVILLE    CLOUDY    27  21  80 N12       29.69F
POTTSTOWN      CLOUDY    26  16  65 N7        29.72S
BLUE BELL      CLOUDY    27  21  80 N5        29.70S
DOYLESTOWN     LGT SNOW  22  19  89 N8        29.69S FOG     WCI  12
WILLOW GROVE   NOT AVBL
NORTH PHILA    LGT SNOW  26  18  71 N12       29.72R
PHILADELPHIA   LGT SNOW  26  19  74 N14       29.72R WCI  14
$$


USA.gov is the U.S. government's official web portal to all federal, state and local government web resources and services.